Location: Mactaquac Provincial Park
(45.9573°N, 66.8897°W)
Time: 04:57:36
(UTC-04:00)

CENTAUR R/B - Visible Passes

Search period start: 25 February 2017 00:00
Search period end: 07 March 2017 00:00
Orbit: 841 x 1348 km, 63.5° (Epoch: 18 February)

Date Brightness Start Highest point End Pass type
(mag) Time Alt. Az. Time Alt. Az. Time Alt. Az.
25 Feb 5.4 18:52:43 10° WNW 18:59:02 27° WSW 19:05:36 10° SSW visible
27 Feb 6.0 19:08:50 10° WNW 19:12:35 14° WSW 19:16:24 10° SW visible
01 Mar 5.6 06:24:18 10° SE 06:27:10 14° ESE 06:30:11 10° ENE visible
04 Mar 5.3 05:49:27 10° SE 05:52:58 16° ESE 05:56:41 10° ENE visible
06 Mar 4.5 06:01:11 10° S 06:06:27 32° ESE 06:12:16 10° NE visible
